• In Russia
  • List of Countries
  • For 7 days
  • Water Temperature
  • Satellite Maps
  • Weather Map
  • Weather Widgets
  • user-avatar
    Login

    Hourly Weather Innsbruck

    Today, 18 January, Thursday

    Time Temperature Precipitation Wind Pressure Humidity
    00:00 -13°C° 0.7 mm 3 mps 588 mmHg 94%
    01:00 -13°C° 0.7 mm 3 mps 588 mmHg 94%
    02:00 -13°C° 0.7 mm 3 mps 588 mmHg 94%
    03:00 -12°C° 0.7 mm 2 mps 588 mmHg 94%
    04:00 -12°C° 0.7 mm 2 mps 588 mmHg 94%
    05:00 -12°C° 0.4 mm 2 mps 587 mmHg 92%
    06:00 -12°C° 0.4 mm 2 mps 587 mmHg 91%
    07:00 -12°C° 0.4 mm 2 mps 587 mmHg 90%
    08:00 -12°C° 0.4 mm 3 mps 587 mmHg 90%
    09:00 -10°C° 0.4 mm 3 mps 587 mmHg 89%
    10:00 -9°C° 0.4 mm 3 mps 588 mmHg 89%
    11:00 -8°C° 0.8 mm 3 mps 588 mmHg 90%
    12:00 -6°C° 0.8 mm 3 mps 588 mmHg 91%
    13:00 -5°C° 0.8 mm 3 mps 588 mmHg 92%
    14:00 -5°C° 0.4 mm 3 mps 587 mmHg 92%
    15:00 -4°C° 0.4 mm 2 mps 587 mmHg 92%
    16:00 -4°C° 0.4 mm 2 mps 587 mmHg 92%
    17:00 -4°C° 0.2 mm 2 mps 587 mmHg 91%
    18:00 -4°C° 0.2 mm 2 mps 587 mmHg 90%
    19:00 -5°C° 0.2 mm 3 mps 587 mmHg 88%
    20:00 -5°C° 0.2 mm 3 mps 587 mmHg 89%
    21:00 -5°C° 0.2 mm 3 mps 587 mmHg 89%
    22:00 -5°C° 0.2 mm 3 mps 587 mmHg 89%
    23:00 -5°C° 0.2 mm 2 mps 587 mmHg 89%

    Tomorrow, 19 January, Friday

    Time Temperature Precipitation Wind Pressure Humidity
    00:00 -5°C° 0.2 mm 2 mps 587 mmHg 88%
    01:00 -5°C° 0.2 mm 2 mps 586 mmHg 88%
    02:00 -5°C° 0.7 mm 2 mps 586 mmHg 89%
    03:00 -5°C° 0.7 mm 2 mps 586 mmHg 91%
    04:00 -5°C° 0.7 mm 2 mps 586 mmHg 92%
    05:00 -5°C° 1.3 mm 2 mps 587 mmHg 93%
    06:00 -5°C° 1.3 mm 2 mps 587 mmHg 94%
    07:00 -6°C° 1.3 mm 2 mps 587 mmHg 95%
    08:00 -6°C° 1 mm 2 mps 587 mmHg 95%
    09:00 -6°C° 1 mm 2 mps 587 mmHg 96%
    10:00 -6°C° 1 mm 2 mps 587 mmHg 96%
    11:00 -6°C° 0.8 mm 2 mps 587 mmHg 96%
    12:00 -7°C° 0.8 mm 2 mps 587 mmHg 96%
    13:00 -7°C° 0.8 mm 2 mps 587 mmHg 95%
    14:00 -7°C° 0.3 mm 2 mps 587 mmHg 95%
    15:00 -8°C° 0.3 mm 2 mps 587 mmHg 94%
    16:00 -8°C° 0.3 mm 2 mps 587 mmHg 94%
    17:00 -9°C° 0.1 mm 2 mps 587 mmHg 93%
    18:00 -10°C° 0.1 mm 2 mps 587 mmHg 93%
    19:00 -12°C° 0.1 mm 2 mps 587 mmHg 93%
    20:00 -13°C° 0 mm 2 mps 586 mmHg 91%
    21:00 -14°C° 0 mm 2 mps 586 mmHg 89%
    22:00 -13°C° 0 mm 1 mps 585 mmHg 87%
    23:00 -15°C° 0.1 mm 2 mps 586 mmHg 87%

    Day after tomorrow, 20 January, Saturday

    Time Temperature Precipitation Wind Pressure Humidity
    00:00 -14°C° 0.1 mm 2 mps 586 mmHg 86%
    01:00 -14°C° 0.1 mm 2 mps 586 mmHg 86%
    02:00 -14°C° 0.4 mm 2 mps 586 mmHg 88%
    03:00 -13°C° 0.4 mm 2 mps 587 mmHg 91%
    04:00 -12°C° 0.4 mm 2 mps 587 mmHg 94%
    05:00 -13°C° 0.4 mm 2 mps 587 mmHg 93%
    06:00 -13°C° 0.4 mm 2 mps 587 mmHg 93%
    07:00 -13°C° 0.4 mm 2 mps 587 mmHg 93%
    08:00 -12°C° 0.6 mm 2 mps 587 mmHg 92%
    09:00 -12°C° 0.6 mm 2 mps 587 mmHg 92%
    10:00 -12°C° 0.6 mm 2 mps 587 mmHg 91%
    11:00 -10°C° 0.3 mm 2 mps 587 mmHg 88%
    12:00 -10°C° 0.3 mm 2 mps 587 mmHg 86%
    13:00 -10°C° 0.3 mm 2 mps 587 mmHg 83%
    14:00 -9°C° 0.6 mm 1 mps 586 mmHg 86%
    15:00 -9°C° 0.6 mm 1 mps 586 mmHg 89%
    16:00 -9°C° 0.6 mm 1 mps 585 mmHg 92%
    17:00 -10°C° 0.8 mm 1 mps 585 mmHg 93%
    18:00 -10°C° 0.8 mm 1 mps 585 mmHg 94%
    19:00 -11°C° 0.8 mm 1 mps 585 mmHg 94%
    20:00 -10°C° 1.3 mm 1 mps 585 mmHg 95%
    21:00 -10°C° 1.3 mm 1 mps 586 mmHg 95%
    22:00 -10°C° 1.3 mm 1 mps 586 mmHg 96%
    23:00 -10°C° 1 mm 1 mps 586 mmHg 96%

    21 January, Sunday

    Time Temperature Precipitation Wind Pressure Humidity
    00:00 -12°C° 1 mm 2 mps 587 mmHg 96%
    01:00 -12°C° 1 mm 2 mps 587 mmHg 96%
    02:00 -13°C° 0.3 mm 2 mps 587 mmHg 96%
    03:00 -13°C° 0.3 mm 2 mps 587 mmHg 96%
    04:00 -14°C° 0.3 mm 2 mps 588 mmHg 96%
    05:00 -14°C° 0.1 mm 2 mps 588 mmHg 95%
    06:00 -15°C° 0.1 mm 2 mps 588 mmHg 95%
    07:00 -16°C° 0.1 mm 2 mps 588 mmHg 94%
    08:00 -15°C° 0 mm 2 mps 589 mmHg 92%
    09:00 -15°C° 0 mm 2 mps 590 mmHg 90%
    10:00 -14°C° 0 mm 2 mps 590 mmHg 88%
    11:00 -13°C° 0 mm 2 mps 591 mmHg 85%
    12:00 -12°C° 0 mm 2 mps 592 mmHg 82%
    13:00 -10°C° 0 mm 2 mps 592 mmHg 79%
    14:00 -10°C° 0.4 mm 2 mps 592 mmHg 83%
    15:00 -9°C° 0.4 mm 1 mps 592 mmHg 87%
    16:00 -9°C° 0.4 mm 1 mps 592 mmHg 92%
    17:00 -9°C° 0.8 mm 1 mps 592 mmHg 92%
    18:00 -9°C° 0.8 mm 1 mps 592 mmHg 93%
    19:00 -10°C° 0.8 mm 2 mps 592 mmHg 94%
    20:00 -9°C° 1.8 mm 2 mps 592 mmHg 94%
    21:00 -8°C° 1.8 mm 2 mps 592 mmHg 95%
    22:00 -8°C° 1.8 mm 2 mps 592 mmHg 95%
    23:00 -7°C° 3.3 mm 2 mps 592 mmHg 96%

    22 January, Monday

    Time Temperature Precipitation Wind Pressure Humidity
    00:00 -7°C° 3.3 mm 2 mps 593 mmHg 96%
    01:00 -6°C° 3.3 mm 2 mps 593 mmHg 97%
    02:00 -6°C° 3 mm 2 mps 593 mmHg 97%
    03:00 -5°C° 3 mm 2 mps 593 mmHg 97%
    04:00 -5°C° 3 mm 2 mps 593 mmHg 97%
    05:00 -4°C° 1.7 mm 2 mps 593 mmHg 97%
    06:00 -4°C° 1.7 mm 2 mps 594 mmHg 97%
    07:00 -4°C° 1.7 mm 3 mps 594 mmHg 96%
    08:00 -4°C° 0.9 mm 3 mps 594 mmHg 97%
    09:00 -3°C° 0.9 mm 2 mps 595 mmHg 97%
    10:00 -2°C° 0.9 mm 2 mps 595 mmHg 98%
    11:00 -2°C° 0.5 mm 2 mps 595 mmHg 98%
    12:00 -2°C° 0.5 mm 2 mps 596 mmHg 99%
    13:00 -2°C° 0.5 mm 2 mps 596 mmHg 99%
    14:00 -2°C° 0.9 mm 2 mps 596 mmHg 98%
    15:00 -2°C° 0.9 mm 2 mps 596 mmHg 97%
    16:00 -2°C° 0.9 mm 2 mps 596 mmHg 96%
    17:00 -2°C° 1.8 mm 2 mps 596 mmHg 96%
    18:00 -2°C° 1.8 mm 2 mps 597 mmHg 95%
    19:00 -3°C° 1.8 mm 2 mps 597 mmHg 95%
    20:00 -3°C° 0.9 mm 2 mps 597 mmHg 95%
    21:00 -3°C° 0.9 mm 2 mps 597 mmHg 94%
    22:00 -3°C° 0.9 mm 2 mps 597 mmHg 94%
    23:00 -3°C° 0.1 mm 2 mps 597 mmHg 94%

    23 January, Tuesday

    Time Temperature Precipitation Wind Pressure Humidity
    00:00 -3°C° 0.1 mm 2 mps 597 mmHg 94%
    01:00 -4°C° 0.1 mm 2 mps 597 mmHg 94%
    02:00 -4°C° 0.1 mm 2 mps 597 mmHg 94%
    03:00 -3°C° 0.1 mm 2 mps 598 mmHg 94%
    04:00 -3°C° 0.1 mm 2 mps 598 mmHg 95%
    05:00 -3°C° 0.4 mm 2 mps 598 mmHg 95%
    06:00 -3°C° 0.4 mm 2 mps 599 mmHg 95%
    07:00 -3°C° 0.4 mm 2 mps 599 mmHg 95%
    08:00 -3°C° 0.1 mm 2 mps 599 mmHg 96%
    09:00 -3°C° 0.1 mm 2 mps 600 mmHg 97%
    10:00 -2°C° 0.1 mm 2 mps 600 mmHg 97%
    11:00 -2°C° 0 mm 2 mps 600 mmHg 98%
    12:00 -2°C° 0 mm 2 mps 600 mmHg 99%
    13:00 -1°C° 0 mm 2 mps 601 mmHg 99%
    14:00 -2°C° 0 mm 2 mps 601 mmHg 99%
    15:00 -2°C° 0 mm 2 mps 601 mmHg 99%
    16:00 -2°C° 0 mm 2 mps 601 mmHg 98%
    17:00 -3°C° 0 mm 2 mps 601 mmHg 97%
    18:00 -2°C° 0 mm 1 mps 601 mmHg 95%
    19:00 -3°C° 0 mm 1 mps 601 mmHg 94%
    20:00 -3°C° 0 mm 1 mps 601 mmHg 92%
    21:00 -4°C° 0 mm 1 mps 601 mmHg 89%
    22:00 -4°C° 0 mm 1 mps 601 mmHg 87%
    23:00 -4°C° 0 mm 1 mps 601 mmHg 85%
    Show more